Location: La Trinit�
(48.1620°N, 3.4512°W)
Time: 15:27:55
(UTC+00:00)

Cosmos 2184 Rocket - Pass Details

Date: 08 May 2021
Orbit: 958 x 1003 km, 82.9° (Epoch: 23 June)

Event Time Altitude Azimuth Distance (km) Brightness Sun altitude
Rises 21:29:02 0° 354° (N) 3,695 8.0 -15.3°
Reaches altitude 10° 21:31:40 10° 359° (N) 2,736 7.1 -15.6°
Maximum altitude 21:37:45 51° 75° (ENE) 1,204 4.3 -16.2°
Enters shadow 21:41:10 25° 139° (SE) 1,829 4.8 -16.5°
